Tampa Macdill AFB, FL

4:52 PM EST on December 08, 2019 (GMT -0500)
MacDill Air Force Base

Weather History for KMCF - August, 2019

Change the Weather History Date:

Tuesday, August 27, 2019

  Actual Average Record
Temperature  
Mean Temperature 82 °F -  
Max Temperature 88 °F 88 °F 94 °F (2016)
Min Temperature 77 °F 73 °F 68 °F (2002)
Cooling Degree Days 17    
Growing Degree Days 32 (Base 50)    
Moisture  
Dew Point 75 °F    
Average Humidity 80    
Maximum Humidity 91    
Minimum Humidity 70    
Precipitation  
Precipitation 0.00 in - - ()
Sea Level Pressure  
Sea Level Pressure 29.98 in    
Wind  
Wind Speed 5 mph (SSW)    
Max Wind Speed 13 mph    
Max Gust Speed 17 mph    
Visibility 10 miles    
Events Rain , Thunderstorm    
Averages and records for this station are not official NWS values.
T = Trace of Precipitation, MM = Missing Value Source: NWS Daily Summary

Daily Weather History Graph

Daily Weather History Graph

Search for Another Location

Airport or City:

Astronomy

Aug. 27, 2019 Rise Set
Actual Time 7:06 AM EDT 7:56 PM EDT
Civil Twilight 6:42 AM EDT 8:20 PM EDT
Nautical Twilight 6:13 AM EDT 8:48 PM EDT
Astronomical Twilight 5:44 AM EDT 9:17 PM EDT
Moon 3:48 AM EDT (8/27) 5:59 PM EDT (8/27)
Length of Visible Light 13h 38m
Length of Day
12h 50m
Waning Crescent, 11% of the Moon is Illuminated
Aug 27
Waning Crescent
Aug 30
New
Sep 5
First Quarter
Sep 14
Full
Sep 21
Last Quarter

Hourly Weather History & Observations

Time (EDT) Temp. Heat Index Dew Point Humidity Pressure Visibility Wind Dir Wind Speed Gust Speed Precip Events Conditions
12:56 AM 78.4 °F - 74.5 °F 88% 30.00 in 10.0 mi ESE 4.6 mph - N/A   Clear
1:56 AM 78.1 °F - 74.8 °F 90% 29.99 in 10.0 mi ESE 4.6 mph - N/A   Clear
2:56 AM 77.7 °F - 74.8 °F 91% 29.96 in 10.0 mi SE 3.5 mph - N/A   Clear
3:56 AM 77.7 °F - 74.5 °F 90% 29.95 in 10.0 mi SSE 5.8 mph - N/A   Clear
4:56 AM 77.9 °F - 73.9 °F 88% 29.94 in 10.0 mi SE 3.5 mph - N/A   Clear
5:56 AM 78.3 °F - 73.9 °F 87% 29.95 in 10.0 mi SE 4.6 mph - N/A   Clear
6:06 AM 78.8 °F - 73.4 °F 83% 29.95 in 10.0 mi ESE 3.5 mph - N/A Rain Light Rain
6:17 AM 77.0 °F - 73.4 °F 89% 29.95 in 10.0 mi ESE 3.5 mph - N/A   Scattered Clouds
6:28 AM 77.0 °F - 73.4 °F 89% 29.95 in 10.0 mi SE 3.5 mph - N/A   Light Drizzle
6:40 AM 77.0 °F - 73.4 °F 89% 29.96 in 10.0 mi ESE 3.5 mph - N/A   Clear
6:56 AM 77.4 °F - 74.1 °F 90% 29.96 in 10.0 mi ESE 4.6 mph - 0.00 in   Clear
7:56 AM 79.3 °F - 75.7 °F 89% 29.98 in 10.0 mi South 3.5 mph - N/A   Clear
8:56 AM 82.4 °F 89.5 °F 75.2 °F 79% 30.00 in 10.0 mi ESE 3.5 mph - N/A   Clear
9:56 AM 84.0 °F 92.6 °F 75.9 °F 76% 30.01 in 10.0 mi SSE 3.5 mph - N/A   Clear
10:40 AM 86.0 °F 96.9 °F 77.0 °F 74% 30.02 in 10.0 mi South 3.5 mph - N/A Thunderstorm Thunderstorm
10:56 AM 85.1 °F 92.9 °F 74.5 °F 70% 30.02 in 10.0 mi SW 12.7 mph 17.3 mph N/A Thunderstorm Thunderstorm
10:57 AM 84.2 °F 90.9 °F 73.4 °F 70% 30.03 in 10.0 mi SW 12.7 mph 17.3 mph N/A Thunderstorm Scattered Clouds
11:02 AM 82.4 °F 87.2 °F 71.6 °F 70% 30.03 in 10.0 mi SW 11.5 mph 17.3 mph N/A Thunderstorm Thunderstorm
11:13 AM 84.2 °F 92.3 °F 75.2 °F 74% 30.02 in 10.0 mi SW 6.9 mph - N/A Rain , Thunderstorm Light Thunderstorms and Rain
11:26 AM 86.0 °F 96.9 °F 77.0 °F 74% 30.02 in 10.0 mi WSW 9.2 mph - N/A Thunderstorm Thunderstorm
11:48 AM 84.2 °F 94.1 °F 77.0 °F 79% 30.02 in 10.0 mi SSW 9.2 mph - N/A Thunderstorm Scattered Clouds
11:56 AM 84.4 °F 93.5 °F 75.9 °F 76% 30.02 in 10.0 mi SSW 9.2 mph - 0.00 in   Scattered Clouds
12:56 PM 87.1 °F 98.3 °F 76.5 °F 71% 30.01 in 10.0 mi WSW 8.1 mph - N/A   Scattered Clouds
1:56 PM 86.7 °F 99.3 °F 78.1 °F 75% 30.00 in 10.0 mi SW 4.6 mph - N/A   Scattered Clouds
2:56 PM 83.8 °F 90.4 °F 73.4 °F 71% 29.98 in 10.0 mi WSW 3.5 mph - N/A   Scattered Clouds
3:56 PM 85.1 °F 94.1 °F 75.4 °F 73% 29.97 in 10.0 mi West 3.5 mph - N/A   Scattered Clouds
4:56 PM 87.4 °F 100.9 °F 78.1 °F 74% 29.97 in 10.0 mi West 6.9 mph - N/A   Partly Cloudy
5:56 PM 86.9 °F 99.3 °F 77.5 °F 74% 29.96 in 10.0 mi West 6.9 mph - N/A   Clear
6:56 PM 85.8 °F 96.4 °F 76.8 °F 74% 29.96 in 10.0 mi West 3.5 mph - N/A   Scattered Clouds
7:41 PM 84.2 °F 94.1 °F 77.0 °F 79% 29.98 in 10.0 mi West 5.8 mph - N/A   Scattered Clouds
8:56 PM 83.3 °F 92.8 °F 77.2 °F 82% 29.98 in 10.0 mi West 4.6 mph - N/A   Partly Cloudy
9:56 PM 83.1 °F 92.6 °F 77.4 °F 83% 29.97 in 10.0 mi WSW 3.5 mph - N/A   Partly Cloudy
11:56 PM 83.1 °F 92.3 °F 77.0 °F 82% 29.98 in 10.0 mi West 4.6 mph - N/A   Clear